Flag for Poland Weather past 2 weeks in Lidzbark Warmiński, Poland

Now
79 °F

Passing clouds.


Feels Like: 81 °F
Forecast: 63 / 92 °F
Wind: 5 mph from Southeast

Location: Ketrzyn

Current Time: Jul 28, 2014 at 11:11:02 AM

Latest Report: Jul 28, 2014 at 10:00 AM


Visibility: 16 mi

Pressure: 29.96 "Hg

Humidity: 60%

Dew point: 64 °F

Location of Lidzbark WarmińskiLocation

Historic Weather in Lidzbark Warmiński — Graph

°F

Lidzbark Warmiński temperature yesterday

Maximum temperature yesterday: 88 °F (at 3:00 PM)
Minimum temperature yesterday: 65 °F (at 5:00 AM)
Average temperature yesterday: 77 °F

Past Weeks' High & Low Weather Summary

 TemperatureHumidityPressure
High88 °F (Jul 27, 3:00 PM)100% (Jul 16, 3:00 AM)30.21 "Hg (Jul 16, 3:00 AM)
Low53 °F (Jul 19, 3:00 AM)29% (Jul 26, 2:00 PM)29.74 "Hg (Jul 13, 10:00 AM)
Average70 °F66%30.04 "Hg
* Reported Jul 13 10:00 AM — Jul 28 9:00 AM, Lidzbark Warmiński, Weather by CustomWeather, © 2014

Note: Actual official high and low records may vary slightly from our data, if they occured in-between our weather recording intervals... More about our weather records

Advertising

Lidzbark Warmiński weather history for previous 24 hours

 ConditionsComfort  
Time TempWeatherWind HumidityBarometerVisibility
9:00 AM
Jul 28
76 °FPassing clouds.5 mph65%29.97 "Hg16 mi
8:00 AM73 °FPassing clouds.7 mph71%29.97 "Hg15 mi
7:00 AM70 °FPassing clouds.6 mph77%29.98 "Hg17 mi
6:00 AM66 °FPassing clouds.5 mph84%29.99 "Hg15 mi
5:00 AM65 °FPassing clouds.5 mph83%29.99 "Hg14 mi
4:00 AM66 °FPassing clouds.6 mph79%29.99 "Hg16 mi
3:00 AM67 °FPassing clouds.5 mph76%29.99 "Hg17 mi
2:00 AM68 °FClear.6 mph75%30.00 "Hg16 mi
1:00 AM69 °FClear.6 mph76%30.01 "Hg16 mi
12:00 AM70 °FClear.6 mph72%30.01 "Hg16 mi
11:00 PM
Jul 27
72 °FPassing clouds.3 mph67%30.00 "Hg18 mi
10:00 PM74 °FPassing clouds.5 mph64%30.01 "Hg18 mi
9:00 PM76 °FPassing clouds.6 mph57%30.00 "Hg19 mi
8:00 PM79 °FPassing clouds.5 mph51%29.98 "Hg19 mi
7:00 PM83 °FScattered clouds.8 mph41%29.97 "Hg19 mi
6:00 PM86 °FPassing clouds.8 mph35%29.96 "Hg19 mi
5:00 PM88 °FPassing clouds.8 mph33%29.97 "Hg19 mi
4:00 PM88 °FScattered clouds.8 mph35%29.98 "Hg25 mi
3:00 PM88 °FScattered clouds.8 mph32%30.00 "Hg18 mi
2:00 PM87 °FScattered clouds.9 mph34%30.01 "Hg19 mi
1:00 PM88 °FScattered clouds.8 mph36%30.03 "Hg16 mi
12:00 PM85 °FPassing clouds.8 mph36%30.03 "Hg25 mi
11:00 AM85 °FPassing clouds.7 mph38%30.04 "Hg19 mi
Weather by CustomWeather, © 2014

See weather overviewHow to use our weather pages